Le nostre stazioni meteo in Italia

Pubblicità
Il mio iltempo24.it
Capo Caccia, Italia (16522): Temperatura & dewpoint: 13.06.2019 01:00:00 - 19.06.2019 01:00:00 (CEST)Capo Caccia, Italia (16522): velocità del vento: 13.06.2019 01:00:00 - 19.06.2019 01:00:00 (CEST)Capo Caccia, Italia (16522): direzione del vento: 13.06.2019 01:00:00 - 19.06.2019 01:00:00 (CEST)Capo Caccia, Italia (16522): reduced air pressure: 13.06.2019 01:00:00 - 19.06.2019 01:00:00 (CEST)Capo Caccia, Italia (16522): visibility: 13.06.2019 01:00:00 - 19.06.2019 01:00:00 (CEST)Capo Caccia, Italia (16522): ore di luce: 13.06.2019 01:00:00 - 19.06.2019 01:00:00 (CEST)
Data & Tempo tt [°C] td [°C] ff [km/h] ff [kn] dd ppp [hPa] vv [km] sd [min]
19.06.2019 01:00:00 21,8 9,0 13 7 NE 1014,8 15 -
19.06.2019 00:00:00 22,0 9,9 18 10 NNE 1014,6 15 -
18.06.2019 23:00:00 22,0 12,5 16 9 NNE 1014,8 15 -
18.06.2019 22:00:00 22,0 15,8 16 9 NE 1014,8 20 -
18.06.2019 21:00:00 24,0 17,0 13 7 NE 1014,3 20 30
18.06.2019 20:00:00 24,6 17,4 16 9 NNE 1014,4 20 60
18.06.2019 19:00:00 21,6 19,0 11 6 NNO 1014,6 20 60
18.06.2019 18:00:00 22,4 19,6 13 7 NNO 1015,2 20 60
18.06.2019 17:00:00 23,0 20,3 13 7 NNO 1015,3 20 60
18.06.2019 16:00:00 22,0 19,4 11 6 NNO 1015,6 20 60
18.06.2019 15:00:00 22,2 19,7 11 6 N 1015,6 20 60
18.06.2019 14:00:00 22,0 20,3 15 8 NO 1015,6 20 60
18.06.2019 13:00:00 21,8 20,1 15 8 NO 1015,8 20 60
18.06.2019 12:00:00 21,6 19,9 13 7 NO 1015,7 20 60
18.06.2019 11:00:00 20,0 19,4 9 5 NNO 1015,8 20 60
18.06.2019 10:00:00 20,0 19,7 8 4 O 1015,8 60 30
18.06.2019 09:00:00 20,2 18,5 8 4 NE 1015,5 4,0 60
18.06.2019 08:00:00 18,4 17,1 4 2 NE 1015,5 3,0 18
18.06.2019 07:00:00 18,2 16,9 2 1 ONO 1015,1 3,0 0
18.06.2019 06:00:00 17,4 15,7 2 1 SSO 1014,9 2,0 -
18.06.2019 05:00:00 17,6 16,3 2 1 SSO 1015,1 10 -
18.06.2019 04:00:00 18,0 17,7 4 2 ESE 1016,0 0,1 -
18.06.2019 03:00:00 18,0 17,7 5 3 E 1015,9 0,05 -
18.06.2019 02:00:00 18,0 16,3 8 4 E 1015,9 20 -
18.06.2019 01:00:00 18,4 16,7 4 2 E 1015,9 20 -
18.06.2019 00:00:00 18,8 18,2 5 3 NE 1015,4 20 -
17.06.2019 23:00:00 19,0 17,7 0 0 N 1015,0 20 -
17.06.2019 22:00:00 19,0 17,8 4 2 ONO 1014,8 20 -
17.06.2019 21:00:00 19,8 18,6 5 3 NNO 1014,6 20 12
17.06.2019 20:00:00 20,8 19,8 11 6 ONO 1014,4 20 60
17.06.2019 19:00:00 21,4 19,7 8 4 O 1014,4 20 60
17.06.2019 18:00:00 21,6 19,4 11 6 O 1014,7 20 60
17.06.2019 17:00:00 21,8 19,4 11 6 SSO 1014,9 20 60
17.06.2019 16:00:00 21,2 19,1 11 6 SO 1015,0 20 60
17.06.2019 15:00:00 21,0 18,9 15 8 SSO 1015,8 20 60
17.06.2019 14:00:00 21,4 18,8 11 6 SSO 1015,7 20 60
17.06.2019 13:00:00 22,2 18,2 8 4 ONO 1015,5 20 60
17.06.2019 12:00:00 21,0 17,0 8 4 O 1016,1 20 60
17.06.2019 11:00:00 20,0 17,4 5 3 O 1015,7 20 60
17.06.2019 10:00:00 20,2 17,0 5 3 O 1015,8 20 60
17.06.2019 09:00:00 18,8 16,4 5 3 O 1015,8 20 60
17.06.2019 08:00:00 17,4 15,4 4 2 O 1015,2 20 24
17.06.2019 07:00:00 16,4 15,1 9 5 ONO 1015,3 20 0
17.06.2019 06:00:00 16,4 14,8 4 2 ESE 1015,4 20 0
17.06.2019 05:00:00 16,4 14,8 2 1 NNE 1015,5 20 -
17.06.2019 04:00:00 16,2 14,6 9 5 NNO 1015,9 20 -
17.06.2019 03:00:00 16,2 15,2 4 2 N 1015,9 20 -
17.06.2019 02:00:00 17,2 16,2 8 4 N 1015,9 20 -
17.06.2019 01:00:00 17,2 16,2 11 6 NNO 1015,9 20 -
17.06.2019 00:00:00 17,4 16,6 16 9 NNO 1015,9 20 -
16.06.2019 23:00:00 18,2 15,6 15 8 NO 1015,8 20 -
16.06.2019 22:00:00 18,4 17,6 15 8 NO 1015,8 20 -
16.06.2019 21:00:00 18,8 18,0 11 6 NNO 1015,9 20 0
16.06.2019 20:00:00 19,0 18,0 9 5 NNO 1015,9 20 48
16.06.2019 19:00:00 20,2 18,2 18 10 ONO 1015,8 20 60
16.06.2019 18:00:00 20,4 18,4 21 11 ONO 1016,3 20 60
16.06.2019 17:00:00 20,4 18,4 21 11 ONO 1016,7 20 60
16.06.2019 16:00:00 21,0 18,0 18 10 ONO 1017,3 20 60
16.06.2019 15:00:00 21,0 17,8 15 8 ONO 1017,3 20 60
16.06.2019 14:00:00 20,8 17,8 15 8 ONO 1017,8 20 60
16.06.2019 13:00:00 20,8 18,2 13 7 ONO 1017,8 20 60
16.06.2019 12:00:00 20,6 18,0 9 5 O 1017,8 20 60
16.06.2019 11:00:00 20,0 17,4 8 4 O 1017,9 20 60
16.06.2019 10:00:00 19,8 17,6 5 3 NE 1017,7 20 60
16.06.2019 09:00:00 18,4 16,7 4 2 N 1017,4 15 30
16.06.2019 08:00:00 18,2 16,5 4 2 ESE 1017,4 15 18
16.06.2019 07:00:00 18,2 15,1 5 3 S 1016,9 10 -
16.06.2019 06:00:00 18,2 15,8 8 4 O 1016,9 10 -
16.06.2019 05:00:00 18,4 16,4 8 4 NNO 1016,9 20 -
16.06.2019 04:00:00 18,4 16,7 4 2 SO 1016,9 20 -
16.06.2019 03:00:00 19,0 17,3 5 3 NO 1017,6 20 -
16.06.2019 02:00:00 19,4 17,7 5 3 S 1017,7 20 -
16.06.2019 01:00:00 20,0 18,1 8 4 O 1017,6 20 -
16.06.2019 00:00:00 20,0 18,8 13 7 SO 1017,5 20 -
15.06.2019 23:00:00 20,0 17,8 5 3 OSO 1017,0 20 -
15.06.2019 22:00:00 19,8 18,1 4 2 OSO 1016,7 20 -
15.06.2019 21:00:00 20,2 19,0 9 5 OSO 1016,6 20 -
15.06.2019 20:00:00 20,8 20,3 11 6 SO 1016,1 20 60
15.06.2019 19:00:00 21,0 20,2 11 6 OSO 1016,2 20 60
15.06.2019 18:00:00 21,2 19,5 5 3 SSO 1016,7 20 60
15.06.2019 17:00:00 22,0 19,4 5 3 SO 1016,9 20 30
15.06.2019 16:00:00 24,0 16,0 2 1 ONO 1017,2 20 60
15.06.2019 15:00:00 21,4 19,5 8 4 O 1017,4 20 60
15.06.2019 14:00:00 21,2 18,6 11 6 O 1016,9 20 60
15.06.2019 13:00:00 20,2 18,5 16 9 OSO 1017,0 20 60
15.06.2019 12:00:00 21,2 18,6 9 5 OSO 1016,9 20 60
15.06.2019 11:00:00 20,2 17,2 9 5 SO 1017,0 20 60
15.06.2019 10:00:00 20,0 17,4 4 2 ESE 1016,8 10 60
15.06.2019 09:00:00 18,8 16,6 4 2 SSE 1016,8 10 0
15.06.2019 08:00:00 18,4 16,2 0 0 N 1016,7 10 0
15.06.2019 07:00:00 18,4 16,2 0 0 N 1016,4 10 -
15.06.2019 06:00:00 18,6 16,4 8 4 S 1016,3 10 -
15.06.2019 05:00:00 18,6 16,4 9 5 S 1016,3 10 -
15.06.2019 04:00:00 18,6 16,6 13 7 SSO 1016,3 10 -
15.06.2019 03:00:00 19,0 17,3 15 8 S 1015,9 15 -
15.06.2019 02:00:00 19,0 17,3 11 6 OSO 1016,6 15 -
15.06.2019 01:00:00 19,0 17,3 11 6 E 1016,6 10 -
15.06.2019 00:00:00 19,0 17,3 18 10 S 1016,1 10 -
14.06.2019 23:00:00 19,2 17,7 16 9 S 1015,8 10 -
14.06.2019 22:00:00 19,4 18,2 11 6 S 1015,4 15 -
14.06.2019 21:00:00 20,0 19,0 21 11 S 1014,5 15 -
14.06.2019 20:00:00 20,0 18,8 24 13 S 1013,8 12 0
14.06.2019 19:00:00 21,0 19,7 24 13 SSO 1012,9 15 36
14.06.2019 18:00:00 21,2 20,0 28 15 SSO 1012,6 10 12
14.06.2019 17:00:00 21,4 20,0 15 8 NO 1012,6 15 0
14.06.2019 16:00:00 21,6 20,4 22 12 OSO 1011,5 15 0
14.06.2019 15:00:00 23,2 19,8 28 15 ONO 1009,5 10 0
14.06.2019 14:00:00 23,8 16,8 29 16 NNE 1009,1 10 0
14.06.2019 13:00:00 34,2 11,4 46 25 SSE 1008,6 15 0
14.06.2019 12:00:00 34,6 10,5 59 32 SSE 1008,0 10 0
14.06.2019 11:00:00 34,0 10,0 65 35 SSE 1007,3 15 0
14.06.2019 10:00:00 33,8 10,4 63 34 SSE 1007,3 15 12
14.06.2019 09:00:00 31,0 10,4 48 26 SE 1007,7 20 60
14.06.2019 08:00:00 30,4 9,9 35 19 ESE 1007,8 20 60
14.06.2019 07:00:00 30,4 9,9 28 15 ESE 1008,2 20 30
14.06.2019 06:00:00 28,8 13,9 24 13 E 1008,7 20 0
14.06.2019 05:00:00 27,0 12,2 13 7 E 1010,1 10 0
14.06.2019 04:00:00 27,0 11,1 15 8 E 1010,1 10 -
14.06.2019 03:00:00 25,0 13,9 16 9 E 1011,4 10 -
14.06.2019 02:00:00 25,0 16,7 5 3 ESE 1011,5 15 -
14.06.2019 01:00:00 25,0 16,2 4 2 SSO 1011,5 10 -
14.06.2019 00:00:00 25,0 18,2 8 4 ENE 1011,5 15 -
13.06.2019 23:00:00 25,6 19,7 8 4 E 1011,4 15 -
13.06.2019 22:00:00 25,2 17,4 8 4 ENE 1011,5 15 -
13.06.2019 21:00:00 25,6 18,5 16 9 NE 1011,2 20 0
13.06.2019 20:00:00 25,6 17,8 18 10 NNE 1011,7 20 12
13.06.2019 19:00:00 27,0 19,9 22 12 NNE 1011,7 20 60
13.06.2019 18:00:00 28,0 18,1 28 15 NNE 1012,3 20 60
13.06.2019 17:00:00 28,8 17,4 28 15 N 1012,9 20 60
13.06.2019 16:00:00 29,0 17,2 24 13 NE 1013,3 20 60
13.06.2019 15:00:00 25,6 16,1 9 5 NNO 1013,7 20 60
13.06.2019 14:00:00 27,0 14,4 9 5 NO 1013,8 20 60
13.06.2019 13:00:00 27,0 15,0 9 5 NNO 1014,2 20 60
13.06.2019 12:00:00 25,8 14,6 8 4 NE 1014,3 20 60
13.06.2019 11:00:00 23,6 13,7 15 8 NE 1014,5 20 60
13.06.2019 10:00:00 21,2 14,4 16 9 NE 1014,9 20 60
13.06.2019 09:00:00 19,2 12,3 21 11 NE 1014,7 20 60
13.06.2019 08:00:00 15,2 13,6 22 12 NNE 1014,9 20 0
13.06.2019 07:00:00 15,2 13,9 22 12 NNE 1014,9 20 -
13.06.2019 06:00:00 15,0 13,1 26 14 NNE 1014,1 20 -
13.06.2019 05:00:00 15,2 14,6 28 15 NNE 1014,1 20 -
13.06.2019 04:00:00 15,2 14,2 28 15 NNE 1014,1 20 -
13.06.2019 03:00:00 16,0 13,9 22 12 NNE 1014,8 20 -
13.06.2019 02:00:00 16,2 14,0 22 12 NNE 1015,0 20 -
13.06.2019 01:00:00 16,2 13,5 18 10 NNE 1015,1 20 -

tt = Temperatura
td = dewpoint
ff = velocità del vento
dd = direzione del vento
ppp = reduced air pressure
vv = visibility
sd = ore di luce

Stazioni seguenti

WeatherPro
AMSI
MeteoEarth